Track STARLINK-1738 now! 10-day predictions STARLINK-1738 is classified as:
1 46336U 20062M 22183.57688318 .00000421 00000-0 47167-4 0 9990 2 46336 53.0540 279.5536 0001417 65.7222 294.3915 15.06402900101692